Time,TemperatureF,DewpointF,PressureIn,WindDirection,WindDirectionDegrees,WindSpeedMPH,WindSpeedGustMPH,Humidity,HourlyPrecipIn,Conditions,Clouds,dailyrainin,SoftwareType,DateUTC
2013-05-01 00:01:00,54.0,28.0,-100.00,WSW,241,4.0,6.0,37,-99.99,,,-99.99,,2013-05-01 07:01:00,
2013-05-01 00:11:00,55.0,29.0,-100.00,WSW,237,3.0,7.0,36,-99.99,,,-99.99,,2013-05-01 07:11:00,
2013-05-01 00:21:00,55.0,28.0,-100.00,WSW,240,4.0,7.0,35,-99.99,,,-99.99,,2013-05-01 07:21:00,
2013-05-01 00:32:00,54.0,28.0,-100.00,WSW,243,3.0,6.0,36,-99.99,,,-99.99,,2013-05-01 07:32:00,
2013-05-01 00:41:00,54.0,28.0,-100.00,SW,233,3.0,5.0,36,-99.99,,,-99.99,,2013-05-01 07:41:00,
2013-05-01 00:52:00,54.0,26.0,-100.00,SW,236,3.0,6.0,34,-99.99,,,-99.99,,2013-05-01 07:52:00,
2013-05-01 01:01:00,55.0,25.0,-100.00,SW,233,3.0,5.0,31,-99.99,,,-99.99,,2013-05-01 08:01:00,
2013-05-01 01:11:00,54.0,25.0,-100.00,SW,234,2.0,5.0,32,-99.99,,,-99.99,,2013-05-01 08:11:00,
2013-05-01 01:21:00,54.0,24.0,-100.00,WSW,243,3.0,6.0,31,-99.99,,,-99.99,,2013-05-01 08:21:00,
2013-05-01 01:31:00,54.0,23.0,-100.00,SW,229,2.0,6.0,30,-99.99,,,-99.99,,2013-05-01 08:31:00,
2013-05-01 01:42:00,54.0,23.0,-100.00,WSW,245,3.0,5.0,30,-99.99,,,-99.99,,2013-05-01 08:42:00,
2013-05-01 01:52:00,54.0,20.0,-100.00,WSW,239,2.0,4.0,26,-99.99,,,-99.99,,2013-05-01 08:52:00,
2013-05-01 02:01:00,54.0,20.0,-100.00,WSW,250,2.0,4.0,26,-99.99,,,-99.99,,2013-05-01 09:01:00,
2013-05-01 02:11:00,54.0,21.0,-100.00,WSW,244,2.0,5.0,27,-99.99,,,-99.99,,2013-05-01 09:11:00,
2013-05-01 02:21:00,54.0,20.0,-100.00,SW,236,2.0,4.0,26,-99.99,,,-99.99,,2013-05-01 09:21:00,
2013-05-01 02:33:00,54.0,18.0,-100.00,WSW,240,2.0,3.0,24,-99.99,,,-99.99,,2013-05-01 09:33:00,
2013-05-01 02:42:00,54.0,17.0,-100.00,WSW,239,2.0,4.0,23,-99.99,,,-99.99,,2013-05-01 09:42:00,
2013-05-01 02:52:00,54.0,17.0,-100.00,SW,236,3.0,4.0,23,-99.99,,,-99.99,,2013-05-01 09:52:00,
2013-05-01 03:02:00,54.0,17.0,-100.00,SW,234,3.0,5.0,23,-99.99,,,-99.99,,2013-05-01 10:02:00,
2013-05-01 03:12:00,53.0,16.0,-100.00,SW,234,3.0,4.0,23,-99.99,,,-99.99,,2013-05-01 10:12:00,
2013-05-01 03:22:00,53.0,17.0,-100.00,SW,233,3.0,5.0,24,-99.99,,,-99.99,,2013-05-01 10:22:00,
2013-05-01 03:32:00,53.0,18.0,-100.00,SW,236,3.0,5.0,25,-99.99,,,-99.99,,2013-05-01 10:32:00,
2013-05-01 03:42:00,53.0,18.0,-100.00,SW,231,3.0,5.0,25,-99.99,,,-99.99,,2013-05-01 10:42:00,
2013-05-01 03:52:00,53.0,18.0,-100.00,SW,233,3.0,5.0,25,-99.99,,,-99.99,,2013-05-01 10:52:00,
2013-05-01 04:02:00,53.0,17.0,-100.00,WSW,237,3.0,5.0,24,-99.99,,,-99.99,,2013-05-01 11:02:00,
2013-05-01 04:11:00,53.0,18.0,-100.00,SW,227,2.0,5.0,25,-99.99,,,-99.99,,2013-05-01 11:11:00,
2013-05-01 04:22:00,53.0,18.0,-100.00,SW,231,3.0,5.0,25,-99.99,,,-99.99,,2013-05-01 11:22:00,
2013-05-01 04:32:00,54.0,19.0,-100.00,SW,232,2.0,4.0,25,-99.99,,,-99.99,,2013-05-01 11:32:00,
2013-05-01 04:42:00,54.0,19.0,-100.00,WSW,237,3.0,4.0,25,-99.99,,,-99.99,,2013-05-01 11:42:00,
2013-05-01 04:51:00,53.0,19.0,-100.00,SW,234,2.0,5.0,26,-99.99,,,-99.99,,2013-05-01 11:51:00,
2013-05-01 05:01:00,53.0,19.0,-100.00,SW,234,2.0,3.0,26,-99.99,,,-99.99,,2013-05-01 12:01:00,
2013-05-01 05:11:00,53.0,20.0,-100.00,SW,228,2.0,4.0,27,-99.99,,,-99.99,,2013-05-01 12:11:00,
2013-05-01 05:21:00,53.0,20.0,-100.00,SW,228,2.0,4.0,27,-99.99,,,-99.99,,2013-05-01 12:21:00,
2013-05-01 05:31:00,53.0,20.0,-100.00,SW,230,2.0,4.0,27,-99.99,,,-99.99,,2013-05-01 12:31:00,
2013-05-01 05:41:00,53.0,20.0,-100.00,SW,230,2.0,4.0,27,-99.99,,,-99.99,,2013-05-01 12:41:00,
2013-05-01 05:51:00,53.0,20.0,-100.00,SW,232,2.0,3.0,27,-99.99,,,-99.99,,2013-05-01 12:51:00,
2013-05-01 06:01:00,52.0,19.0,-100.00,SSW,197,1.0,3.0,27,-99.99,,,-99.99,,2013-05-01 13:01:00,
2013-05-01 06:11:00,50.0,19.0,-100.00,SE,135,1.0,1.0,29,-99.99,,,-99.99,,2013-05-01 13:11:00,
2013-05-01 06:21:00,51.0,20.0,-100.00,ESE,104,1.0,2.0,29,-99.99,,,-99.99,,2013-05-01 13:21:00,
2013-05-01 06:31:00,51.0,20.0,-100.00,ENE,71,1.0,1.0,29,-99.99,,,-99.99,,2013-05-01 13:31:00,
2013-05-01 06:42:00,50.0,19.0,-100.00,ESE,110,1.0,3.0,29,-99.99,,,-99.99,,2013-05-01 13:42:00,
2013-05-01 06:52:00,49.0,19.0,-100.00,ESE,112,1.0,2.0,30,-99.99,,,-99.99,,2013-05-01 13:52:00,
2013-05-01 07:01:00,48.0,20.0,-100.00,East,96,1.0,2.0,32,-99.99,,,-99.99,,2013-05-01 14:01:00,
2013-05-01 07:11:00,48.0,20.0,-100.00,East,95,1.0,3.0,32,-99.99,,,-99.99,,2013-05-01 14:11:00,
2013-05-01 07:21:00,48.0,20.0,-100.00,NE,52,1.0,1.0,32,-99.99,,,-99.99,,2013-05-01 14:21:00,
2013-05-01 07:31:00,49.0,20.0,-100.00,ENE,77,1.0,1.0,31,-99.99,,,-99.99,,2013-05-01 14:31:00,
2013-05-01 07:41:00,50.0,20.0,-100.00,ESE,107,1.0,2.0,30,-99.99,,,-99.99,,2013-05-01 14:41:00,
2013-05-01 07:51:00,52.0,20.0,-100.00,ENE,74,1.0,2.0,28,-99.99,,,-99.99,,2013-05-01 14:51:00,
2013-05-01 08:01:00,58.0,17.0,-100.00,ENE,67,1.0,3.0,20,-99.99,,,-99.99,,2013-05-01 15:01:00,
2013-05-01 08:11:00,59.0,17.0,-100.00,ENE,60,2.0,3.0,19,-99.99,,,-99.99,,2013-05-01 15:11:00,
2013-05-01 08:21:00,60.0,19.0,-100.00,NE,41,2.0,6.0,20,-99.99,,,-99.99,,2013-05-01 15:21:00,
2013-05-01 08:33:00,60.0,19.0,-100.00,NE,47,2.0,6.0,20,-99.99,,,-99.99,,2013-05-01 15:33:00,
2013-05-01 08:42:00,60.0,19.0,-100.00,ENE,60,2.0,6.0,20,-99.99,,,-99.99,,2013-05-01 15:42:00,
2013-05-01 08:53:00,60.0,20.0,-100.00,NE,44,3.0,6.0,21,-99.99,,,-99.99,,2013-05-01 15:53:00,
2013-05-01 09:02:00,60.0,21.0,-100.00,NE,49,3.0,7.0,22,-99.99,,,-99.99,,2013-05-01 16:02:00,
2013-05-01 09:12:00,60.0,22.0,-100.00,NE,38,3.0,11.0,23,-99.99,,,-99.99,,2013-05-01 16:12:00,
2013-05-01 09:22:00,61.0,24.0,-100.00,NE,39,3.0,11.0,24,-99.99,,,-99.99,,2013-05-01 16:22:00,
2013-05-01 09:31:00,60.0,25.0,-100.00,ENE,59,4.0,12.0,26,-99.99,,,-99.99,,2013-05-01 16:31:00,
2013-05-01 09:42:00,60.0,26.0,-100.00,ENE,64,4.0,10.0,27,-99.99,,,-99.99,,2013-05-01 16:42:00,
2013-05-01 09:53:00,61.0,27.0,-100.00,NE,54,3.0,8.0,27,-99.99,,,-99.99,,2013-05-01 16:53:00,
2013-05-01 10:02:00,61.0,27.0,-100.00,NE,39,3.0,9.0,27,-99.99,,,-99.99,,2013-05-01 17:02:00,
2013-05-01 10:12:00,62.0,28.0,-100.00,NE,52,3.0,13.0,27,-99.99,,,-99.99,,2013-05-01 17:12:00,
2013-05-01 10:21:00,61.0,28.0,-100.00,NE,48,4.0,14.0,28,-99.99,,,-99.99,,2013-05-01 17:21:00,
2013-05-01 10:31:00,61.0,28.0,-100.00,ENE,58,4.0,11.0,28,-99.99,,,-99.99,,2013-05-01 17:31:00,
2013-05-01 10:41:00,61.0,28.0,-100.00,NE,41,3.0,9.0,28,-99.99,,,-99.99,,2013-05-01 17:41:00,
2013-05-01 10:52:00,60.0,27.0,-100.00,NNE,28,5.0,11.0,28,-99.99,,,-99.99,,2013-05-01 17:52:00,
2013-05-01 11:01:00,61.0,29.0,-100.00,NE,35,4.0,9.0,29,-99.99,,,-99.99,,2013-05-01 18:01:00,
2013-05-01 11:11:00,61.0,28.0,-100.00,NE,54,3.0,8.0,28,-99.99,,,-99.99,,2013-05-01 18:11:00,
2013-05-01 11:22:00,61.0,27.0,-100.00,NE,42,5.0,14.0,27,-99.99,,,-99.99,,2013-05-01 18:22:00,
2013-05-01 11:32:00,61.0,27.0,-100.00,NE,37,4.0,10.0,27,-99.99,,,-99.99,,2013-05-01 18:32:00,
2013-05-01 11:41:00,61.0,27.0,-100.00,NE,37,4.0,10.0,27,-99.99,,,-99.99,,2013-05-01 18:41:00,
2013-05-01 11:52:00,61.0,27.0,-100.00,NE,37,4.0,10.0,27,-99.99,,,-99.99,,2013-05-01 18:52:00,
2013-05-01 12:01:00,61.0,25.0,-100.00,NE,54,4.0,12.0,25,-99.99,,,-99.99,,2013-05-01 19:01:00,
2013-05-01 12:11:00,62.0,25.0,-100.00,NNE,29,5.0,13.0,24,-99.99,,,-99.99,,2013-05-01 19:11:00,
2013-05-01 12:22:00,62.0,25.0,-100.00,NE,55,4.0,14.0,24,-99.99,,,-99.99,,2013-05-01 19:22:00,
2013-05-01 12:32:00,63.0,26.0,-100.00,ENE,64,4.0,8.0,24,-99.99,,,-99.99,,2013-05-01 19:32:00,
2013-05-01 12:42:00,62.0,23.0,-100.00,NNE,25,5.0,11.0,22,-99.99,,,-99.99,,2013-05-01 19:42:00,
2013-05-01 12:52:00,62.0,23.0,-100.00,NNE,25,5.0,11.0,22,-99.99,,,-99.99,,2013-05-01 19:52:00,
2013-05-01 13:01:00,63.0,24.0,-100.00,NE,48,4.0,10.0,22,-99.99,,,-99.99,,2013-05-01 20:01:00,
2013-05-01 13:11:00,63.0,22.0,-100.00,NNE,28,3.0,10.0,21,-99.99,,,-99.99,,2013-05-01 20:11:00,
2013-05-01 13:21:00,63.0,22.0,-100.00,ENE,68,4.0,18.0,21,-99.99,,,-99.99,,2013-05-01 20:21:00,
2013-05-01 13:31:00,64.0,22.0,-100.00,NE,34,4.0,10.0,20,-99.99,,,-99.99,,2013-05-01 20:31:00,
2013-05-01 13:42:00,63.0,21.0,-100.00,NE,39,4.0,10.0,20,-99.99,,,-99.99,,2013-05-01 20:42:00,
2013-05-01 13:52:00,63.0,21.0,-100.00,NE,48,4.0,14.0,20,-99.99,,,-99.99,,2013-05-01 20:52:00,
2013-05-01 14:01:00,64.0,22.0,-100.00,NE,48,4.0,9.0,20,-99.99,,,-99.99,,2013-05-01 21:01:00,
2013-05-01 14:11:00,64.0,22.0,-100.00,NE,36,3.0,10.0,20,-99.99,,,-99.99,,2013-05-01 21:11:00,
2013-05-01 14:21:00,64.0,22.0,-100.00,NNE,26,4.0,10.0,20,-99.99,,,-99.99,,2013-05-01 21:21:00,
2013-05-01 14:32:00,64.0,22.0,-100.00,NE,38,5.0,9.0,20,-99.99,,,-99.99,,2013-05-01 21:32:00,
2013-05-01 14:43:00,64.0,20.0,-100.00,NNE,26,4.0,9.0,18,-99.99,,,-99.99,,2013-05-01 21:43:00,
2013-05-01 14:52:00,64.0,18.0,-100.00,NE,40,5.0,19.0,17,-99.99,,,-99.99,,2013-05-01 21:52:00,
2013-05-01 15:03:00,66.0,19.0,-100.00,NNE,15,3.0,10.0,16,-99.99,,,-99.99,,2013-05-01 22:03:00,
2013-05-01 15:12:00,66.0,17.0,-100.00,North,5,3.0,9.0,15,-99.99,,,-99.99,,2013-05-01 22:12:00,
2013-05-01 15:22:00,66.0,15.0,-100.00,NNE,21,3.0,11.0,14,-99.99,,,-99.99,,2013-05-01 22:22:00,
2013-05-01 15:32:00,65.0,16.0,-100.00,NNE,28,5.0,11.0,15,-99.99,,,-99.99,,2013-05-01 22:32:00,
2013-05-01 15:42:00,65.0,16.0,-100.00,ENE,65,5.0,15.0,15,-99.99,,,-99.99,,2013-05-01 22:42:00,
2013-05-01 15:52:00,65.0,16.0,-100.00,NE,49,3.0,8.0,15,-99.99,,,-99.99,,2013-05-01 22:52:00,
2013-05-01 16:01:00,66.0,17.0,-100.00,NNE,33,3.0,7.0,15,-99.99,,,-99.99,,2013-05-01 23:01:00,
2013-05-01 16:11:00,65.0,16.0,-100.00,NE,40,4.0,25.0,15,-99.99,,,-99.99,,2013-05-01 23:11:00,
2013-05-01 16:21:00,66.0,17.0,-100.00,NNE,15,3.0,9.0,15,-99.99,,,-99.99,,2013-05-01 23:21:00,
2013-05-01 16:32:00,65.0,16.0,-100.00,NW,312,3.0,9.0,15,-99.99,,,-99.99,,2013-05-01 23:32:00,
2013-05-01 16:42:00,66.0,15.0,-100.00,North,4,3.0,10.0,14,-99.99,,,-99.99,,2013-05-01 23:42:00,
2013-05-01 16:52:00,66.0,15.0,-100.00,NNE,22,3.0,8.0,14,-99.99,,,-99.99,,2013-05-01 23:52:00,
2013-05-01 17:01:00,66.0,14.0,-100.00,NNE,19,3.0,9.0,13,-99.99,,,-99.99,,2013-05-02 00:01:00,
2013-05-01 17:11:00,66.0,14.0,-100.00,NE,52,3.0,12.0,13,-99.99,,,-99.99,,2013-05-02 00:11:00,
2013-05-01 17:21:00,66.0,14.0,-100.00,NNE,31,3.0,7.0,13,-99.99,,,-99.99,,2013-05-02 00:21:00,
2013-05-01 17:32:00,65.0,13.0,-100.00,North,3,3.0,10.0,13,-99.99,,,-99.99,,2013-05-02 00:32:00,
2013-05-01 17:41:00,65.0,13.0,-100.00,North,3,3.0,10.0,13,-99.99,,,-99.99,,2013-05-02 00:41:00,
2013-05-01 17:52:00,65.0,13.0,-100.00,SE,126,4.0,13.0,13,-99.99,,,-99.99,,2013-05-02 00:52:00,
2013-05-01 18:01:00,65.0,11.0,-100.00,NNE,16,3.0,9.0,12,-99.99,,,-99.99,,2013-05-02 01:01:00,
2013-05-01 18:11:00,64.0,10.0,-100.00,NNE,17,3.0,6.0,12,-99.99,,,-99.99,,2013-05-02 01:11:00,
2013-05-01 18:21:00,64.0,10.0,-100.00,North,1,2.0,6.0,12,-99.99,,,-99.99,,2013-05-02 01:21:00,
2013-05-01 18:32:00,64.0,10.0,-100.00,NNW,336,3.0,10.0,12,-99.99,,,-99.99,,2013-05-02 01:32:00,
2013-05-01 18:42:00,64.0,12.0,-100.00,NNW,342,3.0,8.0,13,-99.99,,,-99.99,,2013-05-02 01:42:00,
2013-05-01 18:52:00,64.0,12.0,-100.00,West,264,2.0,6.0,13,-99.99,,,-99.99,,2013-05-02 01:52:00,
2013-05-01 19:01:00,63.0,11.0,-100.00,SSW,206,2.0,9.0,13,-99.99,,,-99.99,,2013-05-02 02:01:00,
2013-05-01 19:11:00,63.0,11.0,-100.00,West,279,2.0,7.0,13,-99.99,,,-99.99,,2013-05-02 02:11:00,
2013-05-01 19:21:00,63.0,11.0,-100.00,NNW,343,2.0,8.0,13,-99.99,,,-99.99,,2013-05-02 02:21:00,
2013-05-01 19:31:00,63.0,11.0,-100.00,North,358,3.0,13.0,13,-99.99,,,-99.99,,2013-05-02 02:31:00,
2013-05-01 19:42:00,63.0,11.0,-100.00,North,358,3.0,13.0,13,-99.99,,,-99.99,,2013-05-02 02:42:00,
2013-05-01 19:51:00,63.0,11.0,-100.00,North,358,3.0,13.0,13,-99.99,,,-99.99,,2013-05-02 02:51:00,
2013-05-01 20:01:00,62.0,11.0,-100.00,West,259,2.0,5.0,13,-99.99,,,-99.99,,2013-05-02 03:01:00,
2013-05-01 20:11:00,61.0,10.0,-100.00,West,275,1.0,5.0,13,-99.99,,,-99.99,,2013-05-02 03:11:00,
2013-05-01 20:22:00,61.0,10.0,-100.00,South,179,2.0,5.0,13,-99.99,,,-99.99,,2013-05-02 03:22:00,
2013-05-01 20:32:00,61.0,10.0,-100.00,NW,312,2.0,5.0,13,-99.99,,,-99.99,,2013-05-02 03:32:00,
2013-05-01 20:42:00,61.0,10.0,-100.00,ENE,58,1.0,4.0,13,-99.99,,,-99.99,,2013-05-02 03:42:00,
2013-05-01 20:52:00,61.0,10.0,-100.00,NNW,328,1.0,7.0,13,-99.99,,,-99.99,,2013-05-02 03:52:00,
2013-05-01 21:02:00,61.0,8.0,-100.00,WNW,290,1.0,6.0,12,-99.99,,,-99.99,,2013-05-02 04:02:00,
2013-05-01 21:12:00,61.0,8.0,-100.00,SW,228,1.0,5.0,12,-99.99,,,-99.99,,2013-05-02 04:12:00,
2013-05-01 21:22:00,60.0,7.0,-100.00,NW,322,2.0,6.0,12,-99.99,,,-99.99,,2013-05-02 04:22:00,
2013-05-01 21:33:00,61.0,8.0,-100.00,WNW,283,1.0,5.0,12,-99.99,,,-99.99,,2013-05-02 04:33:00,
2013-05-01 21:42:00,60.0,7.0,-100.00,NW,326,1.0,7.0,12,-99.99,,,-99.99,,2013-05-02 04:42:00,
2013-05-01 21:52:00,61.0,8.0,-100.00,NE,40,2.0,5.0,12,-99.99,,,-99.99,,2013-05-02 04:52:00,
2013-05-01 22:02:00,61.0,8.0,-100.00,NE,40,2.0,5.0,12,-99.99,,,-99.99,,2013-05-02 05:02:00,
2013-05-01 22:11:00,61.0,8.0,-100.00,NE,42,1.0,4.0,12,-99.99,,,-99.99,,2013-05-02 05:11:00,
2013-05-01 22:22:00,60.0,7.0,-100.00,NNW,343,1.0,6.0,12,-99.99,,,-99.99,,2013-05-02 05:22:00,
2013-05-01 22:32:00,60.0,7.0,-100.00,NE,36,1.0,4.0,12,-99.99,,,-99.99,,2013-05-02 05:32:00,
2013-05-01 22:42:00,60.0,5.0,-100.00,NE,42,2.0,6.0,11,-99.99,,,-99.99,,2013-05-02 05:42:00,
2013-05-01 22:51:00,60.0,5.0,-100.00,NNE,12,2.0,6.0,11,-99.99,,,-99.99,,2013-05-02 05:51:00,
2013-05-01 23:01:00,60.0,3.0,-100.00,NNE,27,2.0,7.0,10,-99.99,,,-99.99,,2013-05-02 06:01:00,
2013-05-01 23:12:00,61.0,4.0,-100.00,West,274,3.0,9.0,10,-99.99,,,-99.99,,2013-05-02 06:12:00,
2013-05-01 23:21:00,61.0,2.0,-100.00,NW,304,2.0,5.0,9,-99.99,,,-99.99,,2013-05-02 06:21:00,
2013-05-01 23:31:00,60.0,1.0,-100.00,WSW,240,3.0,8.0,9,-99.99,,,-99.99,,2013-05-02 06:31:00,
2013-05-01 23:42:00,60.0,1.0,-100.00,WSW,240,3.0,8.0,9,-99.99,,,-99.99,,2013-05-02 06:42:00,
2013-05-01 23:52:00,59.0,0.0,-100.00,WSW,254,2.0,4.0,9,-99.99,,,-99.99,,2013-05-02 06:52:00,